Regional Weather Roundup
Issued by NWS Boston, MA

Current Version | Previous Version | Graphics & Text | Print | Product List | Glossary On
Versions: 1 2 3 4 5 6 7 8 9 10 11 12 13 14 15 16 17 18 19 20 21 22 23 24 25 26 27
000
ASUS41 KBOX 261010
RWRBOX

REGIONAL WEATHER ROUNDUP
NATIONAL WEATHER SERVICE BOSTON/NORTON MA
600 AM EDT SUN JUN 26 2022

NOTE:  "FAIR" INDICATES FEW OR NO CLOUDS BELOW 12,000 FEET WITH NO
SIGNIFICANT WEATHER AND/OR OBSTRUCTIONS TO VISIBILITY.

MAZALL-261100-
EASTERN MASSACHUSETTS

CITY           SKY/WX    TMP DP  RH WIND       PRES   REMARKS
BOSTON         PTCLDY    68  63  84 S5        30.11R
BEVERLY        CLOUDY    67  62  84 CALM      30.10R
LAWRENCE       CLOUDY    68  63  84 CALM      30.13R
BEDFORD        PTCLDY    63  61  93 CALM      30.10R
BLUE HILL      NOT AVBL
NORWOOD        FOG       62  59  90 CALM      30.11S VSB 1
MARSHFIELD     CLEAR     66  63  88 CALM      30.11R
PLYMOUTH       FOG       65  64  97 CALM      30.12R VSB 1/2
TAUNTON        CLEAR     60  59  96 CALM      30.11S FOG
NEW BEDFORD    FOG       63  62  97 CALM      30.12R VSB<1/4
$$

MAZALL-261100-
CAPE COD AND THE ISLANDS

CITY           SKY/WX    TMP DP  RH WIND       PRES   REMARKS
FALMOUTH       CLEAR     63  63 100 CALM      30.13R
HYANNIS        CLEAR     68  66  93 S5        30.11S
CHATHAM        FOG       67  65  93 SW5       30.13S VSB 1/4
PROVINCETOWN   CLEAR     67  65  93 S7        30.12S
NANTUCKET      FOG       64  64 100 SW5       30.14R VSB<1/4
MARTHAS VNYRD  FOG       60  60 100 S3        30.13R VSB 1/4
$$

MAZALL-261100-
CENTRAL AND WESTERN MASSACHUSETTS

CITY           SKY/WX    TMP DP  RH WIND       PRES   REMARKS
WORCESTER      PTCLDY    69  59  70 W7        30.15R
FITCHBURG      CLEAR     63  59  87 CALM      30.12R
ORANGE         CLEAR     61  59  93 CALM      30.15R
SPRINGFIELD    CLEAR     61  61 100 CALM      30.11S
WESTFIELD      CLEAR     60  59  96 CALM      30.12R
NORTH ADAMS    CLEAR     60  56  86 CALM      30.15R
PITTSFIELD     CLEAR     56  55  97 CALM      30.15R
$$

RIZALL-261100-
RHODE ISLAND

CITY           SKY/WX    TMP DP  RH WIND       PRES   REMARKS
PROVIDENCE     PTCLDY    65  63  93 S3        30.13R
NEWPORT        CLEAR     64  64 100 S3        30.13R FOG
BLOCK ISLAND   PTCLDY    65  64  97 S9        30.14R FOG
SMITHFIELD     CLEAR     63  63 100 CALM      30.13S
WESTERLY       CLEAR     61  59  93 CALM      30.12S
$$

CTZALL-261100-
CONNECTICUT

CITY           SKY/WX    TMP DP  RH WIND       PRES   REMARKS
BRADLEY INTL   PTCLDY    64  61  90 CALM      30.12R
HARTFORD       CLEAR     68  64  87 CALM      30.12R
BRIDGEPORT     CLEAR     67  64  90 CALM      30.12R
DANBURY        CLEAR     62  59  90 CALM      30.14R
GROTON         CLEAR     64  61  90 CALM      30.11S
NEW HAVEN      CLEAR     67  65  93 CALM      30.12R FOG
CHESTER        FAIR      64  64 100 CALM      30.13S
MERIDEN        CLEAR     62  60  93 CALM      30.12R
WILLIMANTIC    MOCLDY    61  61 100 CALM      30.13S
OXFORD         CLEAR     63  62  97 CALM      30.15R
$$

MEZ002-015-021-024-NHZ003-005-008-011-012-014-VTZ005-008-261100-
NORTHERN NEW ENGLAND

CITY           SKY/WX    TMP DP  RH WIND       PRES   REMARKS
PORTLAND ME    MOCLDY    67  63  87 N7        30.10R
BANGOR ME      PTCLDY    66  56  70 N3        30.11R
CONCORD NH     CLEAR     61  60  97 CALM      30.12R
MANCHESTER NH  PTCLDY    68  62  81 CALM      30.10R
NASHUA NH      CLEAR     64  64 100 CALM      30.12R
PORTSMOUTH NH  PTCLDY    64  60  89 NW3       30.10R
JAFFREY NH     CLEAR     61  58  90 S3        30.16R
KEENE NH       CLEAR     58  58 100 S3          N/A
BURLINGTON VT  PTCLDY    66  62  87 CALM      30.08R
MT. WASHINGTON MOCLDY    54  48  82 W10         N/A
$$

NYZ052-076-261100-
EASTERN NEW YORK

CITY           SKY/WX    TMP DP  RH WIND       PRES   REMARKS
ALBANY         PTCLDY    63  60  90 CALM      30.11R
NEW YORK CITY  PTCLDY    72  64  76 NE3       30.10R
$$

ANZALL-261100-
MARINE OBSERVATIONS

STATION/POSITION TIME  TEMP    WIND        PRES    VSBY  WAVE
                       AIR SEA DIR/SP/G                  HT/PER
                 (UTC) (F)     (DEG/KT/KT) (MB)    (MI)  (FT/S)
BOSTON BUOY      NOT AVBL
BUZZARDS BAY     NOT AVBL
NANTUCKET SOUND  NOT AVBL
MASS BAY-STELLWA NOT AVBL
ISLE OF SHOALS   NOT AVBL
S OF BLOCK IS    NOT AVBL
$$

......................KEY.........................
  SKY/WX - SKY CONDITION/PRESENT WEATHER
  TMP    - TEMPERATURE IN FAHRENHEIT
  DWPT   - DEWPOINT IN FAHRENHEIT
  RH     - RELATIVE HUMIDITY IN PERCENT
  WIND   - DIRECTION AND SPEED IN MPH
  PRES   - MEAN SEA LEVEL PRESSURE IN INCHES OF HG
  WCI    - WIND CHILL INDEX
  VSB    - VISIBILITY IN MILES
  HX     - HEAT INDEX
  TC     - TEMPERATURE IN CELSIUS
  VRB    - VARIABLE WIND DIRECTION
  N/A    - NOT AVAILABLE



USA.gov is the U.S. government's official web portal to all federal, state and local government web resources and services.